West Palm Beach, FL

5:12 PM EST on December 07, 2019 (GMT -0500)
Palm Beach International

Weather History for KPBI - October, 2019

Change the Weather History Date:

Tuesday, October 29, 2019

  Actual Average Record
Temperature  
Mean Temperature 81 °F 76 °F  
Max Temperature 84 °F 83 °F 89 °F (1980)
Min Temperature 77 °F 69 °F 49 °F (2008)
Degree Days  
Heating Degree Days 0 0  
Month to date heating degree days 0 0  
Since 1 July heating degree days 0 0  
Cooling Degree Days 16 11  
Month to date cooling degree days 487 392  
Year to date cooling degree days 4196 3600  
Growing Degree Days 30 (Base 50)    
Moisture  
Dew Point 74 °F    
Average Humidity 82    
Maximum Humidity 94    
Minimum Humidity 69    
Precipitation  
Precipitation 0.07 in 0.15 in 4.06 in (1962)
Month to date precipitation 5.40 4.87  
Year to date precipitation 53.39 53.94  
Snow  
Snow 0.00 in - - ()
Month to date snowfall 0.0  
Since 1 July snowfall 0.0  
Since 1 September snowfall 0.0  
Snow Depth 0.00 in    
Sea Level Pressure  
Sea Level Pressure 30.05 in    
Wind  
Wind Speed 10 mph (East)    
Max Wind Speed 15 mph    
Max Gust Speed 18 mph    
Visibility 10 miles    
Events      
T = Trace of Precipitation, MM = Missing Value Source: NWS Daily Summary

Daily Weather History Graph

Daily Weather History Graph

Search for Another Location

Airport or City:

Astronomy

Oct. 29, 2019 Rise Set
Actual Time 7:27 AM EDT 6:40 PM EDT
Civil Twilight 7:04 AM EDT 7:03 PM EDT
Nautical Twilight 6:36 AM EDT 7:31 PM EDT
Astronomical Twilight 6:09 AM EDT 7:58 PM EDT
Moon 8:54 AM EDT (10/29) 8:10 PM EDT (10/29)
Length of Visible Light 11h 59m
Length of Day
11h 12m
Waxing Crescent, 3% of the Moon is Illuminated
Oct 29
Waxing Crescent
Nov 4
First Quarter
Nov 12
Full
Nov 19
Last Quarter
Nov 26
New

Hourly Weather History & Observations

Time (EDT) Temp. Heat Index Dew Point Humidity Pressure Visibility Wind Dir Wind Speed Gust Speed Precip Events Conditions
12:53 AM 78.1 °F - 75.0 °F 90% 30.06 in 10.0 mi ESE 6.9 mph - N/A   Scattered Clouds
1:53 AM 78.1 °F - 75.0 °F 90% 30.05 in 10.0 mi ESE 6.9 mph - N/A   Partly Cloudy
2:53 AM 78.1 °F - 75.0 °F 90% 30.03 in 10.0 mi East 5.8 mph - N/A   Scattered Clouds
3:53 AM 79.0 °F - 75.0 °F 88% 30.02 in 10.0 mi East 4.6 mph - N/A   Mostly Cloudy
4:53 AM 77.0 °F - 75.9 °F 96% 30.02 in 10.0 mi SE 8.1 mph - 0.07 in   Mostly Cloudy
5:53 AM 78.1 °F - 75.0 °F 90% 30.02 in 10.0 mi ESE 8.1 mph - N/A   Scattered Clouds
6:53 AM 78.1 °F - 75.0 °F 90% 30.04 in 10.0 mi ESE 8.1 mph - N/A   Scattered Clouds
7:53 AM 77.0 °F - 75.0 °F 94% 30.05 in 10.0 mi SE 6.9 mph - N/A   Mostly Cloudy
8:53 AM 79.0 °F - 75.0 °F 88% 30.07 in 10.0 mi East 10.4 mph - N/A   Scattered Clouds
9:53 AM 81.0 °F 86.7 °F 75.0 °F 82% 30.08 in 10.0 mi East 11.5 mph - N/A   Scattered Clouds
10:53 AM 82.0 °F 88.6 °F 75.0 °F 79% 30.09 in 10.0 mi East 12.7 mph - N/A   Scattered Clouds
11:53 AM 82.9 °F 90.2 °F 75.0 °F 77% 30.09 in 10.0 mi East 13.8 mph - N/A   Scattered Clouds
12:53 PM 82.9 °F 89.4 °F 73.9 °F 74% 30.07 in 10.0 mi ESE 12.7 mph - N/A   Scattered Clouds
1:53 PM 82.9 °F 88.8 °F 73.0 °F 72% 30.05 in 10.0 mi ENE 11.5 mph - N/A   Scattered Clouds
2:53 PM 82.9 °F 88.8 °F 73.0 °F 72% 30.04 in 10.0 mi East 12.7 mph - N/A   Scattered Clouds
3:53 PM 82.0 °F 87.4 °F 73.0 °F 74% 30.03 in 10.0 mi East 11.5 mph - N/A   Scattered Clouds
4:53 PM 82.0 °F 86.7 °F 72.0 °F 71% 30.03 in 10.0 mi East 9.2 mph - N/A   Scattered Clouds
5:53 PM 81.0 °F 85.8 °F 73.0 °F 77% 30.03 in 10.0 mi ENE 11.5 mph - N/A   Scattered Clouds
6:53 PM 81.0 °F 85.8 °F 73.0 °F 77% 30.03 in 10.0 mi East 10.4 mph - N/A   Mostly Cloudy
7:53 PM 81.0 °F 85.8 °F 73.0 °F 77% 30.04 in 10.0 mi East 11.5 mph - N/A   Scattered Clouds
8:53 PM 80.1 °F 84.2 °F 73.0 °F 79% 30.05 in 10.0 mi East 12.7 mph - N/A   Scattered Clouds
9:53 PM 80.1 °F 84.5 °F 73.9 °F 81% 30.07 in 10.0 mi East 12.7 mph - N/A   Scattered Clouds
10:29 PM 79.0 °F - 73.9 °F 84% 30.07 in 10.0 mi East 11.5 mph - N/A   Mostly Cloudy
10:53 PM 80.1 °F 84.5 °F 73.9 °F 81% 30.07 in 10.0 mi East 10.4 mph - N/A   Mostly Cloudy
11:53 PM 80.1 °F 84.2 °F 73.0 °F 79% 30.07 in 10.0 mi East 10.4 mph - N/A   Mostly Cloudy